Regional Weather Roundup
Issued by NWS Charleston, SC

Current Version | Previous Version | Graphics & Text | Print | Product List | Glossary On
Versions: 1 2 3 4 5 6 7 8 9 10 11 12 13 14 15 16 17 18 19 20 21 22 23 24 25 26 27 28 29 30 31 32 33 34 35 36 37 38 39 40 41 42 43 44 45 46 47 48 49 50
000 ASUS42 KCHS 241228 RWRCHS REGIONAL WEATHER ROUNDUP NATIONAL WEATHER SERVICE CHARLESTON SC 800 AM EDT WED AUG 24 2016 NOTE: "FAIR" INDICATES FEW OR NO CLOUDS BELOW 12,000 FEET WITH NO SIGNIFICANT WEATHER AND/OR OBSTRUCTIONS TO VISIBILITY. NOT ALL STATIONS ARE QUALITY CONTROLLED. USE DATA WITH CAUTION... ESPECIALLY DEWPOINT OBSERVATIONS. SCZ027-030-031-034>040-042>050-241300- ...SOUTHEAST SOUTH CAROLINA... CITY SKY/WX TMP DP RH WIND PRES REMARKS N CHARLESTON MOSUNNY 76 69 79 NE9 30.24R 6HR MIN TEMP: 72; 6HR MAX TEMP: 76; WATERFRONT PRK N/A 77 72 84 N9 30.20R MOUNT PLEASANT FAIR 75 72 88 N5 30.25R JOHNS ISLAND FAIR 79 73 83 N6 30.24R PINOPOLIS N/A 75 72 88 NE10 30.18R MONCKS CORNER FAIR 73 68 83 NE5 30.26R SUMMERVILLE FAIR 73 73 100 CALM 30.26S BEAUFORT MCAS MOSUNNY 75 71 87 NE8 30.24R 6HR MIN TEMP: 73; 6HR MAX TEMP: 77; BEAUFORT ARPT FAIR 77 72 83 NE5 30.23R HAZE HILTON HEAD IS MOSUNNY 79 73 83 N9 30.14R WALTERBORO SUNNY 79 73 83 NE6 30.26S ALLENDALE FAIR 75 70 83 CALM 30.25S ...SOUTHERN MIDLANDS AND PEE DEE... CITY SKY/WX TMP DP RH WIND PRES REMARKS GEORGETOWN FAIR 72 68 88 N7 30.26S KINGSTREE FAIR 72 64 78 CALM 30.27S ORANGEBURG SUNNY 73 69 87 NE6 30.27R 6HR MIN TEMP: 69; 6HR MAX TEMP: 73; BARNWELL NOT AVBL AIKEN FAIR 73 66 78 CALM 30.32R MANNING FAIR 70 66 88 NE3 30.28R COLUMBIA MOSUNNY 76 68 76 CALM 30.27R 6HR MIN TEMP: 71; 6HR MAX TEMP: 77; SUMTER SUNNY 71 67 86 NE5 30.26R 6HR MIN TEMP: 69; 6HR MAX TEMP: 74; FLORENCE SUNNY 72 66 81 NE5 30.29R 6HR MIN TEMP: 69; 6HR MAX TEMP: 72; MYRTLE BEACH SUNNY 73 59 60 NE7 30.28R N MYRTLE BEACH SUNNY 72 65 78 N6 30.26R 6HR MIN TEMP: 68; 6HR MAX TEMP: 74; $$ GAZ063-065-086>088-099>101-113>116-118-119-134>141-150-241300- ...SOUTHEAST GEORGIA... CITY SKY/WX TMP DP RH WIND PRES REMARKS SAVANNAH ARPT MOSUNNY 75 71 87 N8 30.23R 6HR MIN TEMP: 73; 6HR MAX TEMP: 77; HUNTER AAF SUNNY 77 75 96 CALM 30.20R 6HR MIN TEMP: 74; 6HR MAX TEMP: 79; FORT STEWART SUNNY 74 71 91 NE5 30.21R 6HR MIN TEMP: 73; 6HR MAX TEMP: 75; STATESBORO PTSUNNY 76 71 86 E3 30.25R SYLVANIA PTSUNNY N/A N/A N/A E6 30.25S CLAXTON CLOUDY 75 74 99 CALM 30.24S FOG ...CSRA...CENTRAL AND FAR SOUTHEAST GEORGIA... CITY SKY/WX TMP DP RH WIND PRES REMARKS THOMSON CLOUDY 78 73 86 MISG 30.32R AUGUSTA-BUSH MOSUNNY 74 70 87 CALM 30.26R 6HR MIN TEMP: 71; 6HR MAX TEMP: 77; AUGUSTA-DANIEL PTSUNNY 78 68 71 E3 30.28R SWAINSBORO CLOUDY 75 72 88 E3 30.26R VIDALIA CLOUDY 75 75 100 E5 30.25R EASTMAN CLOUDY 76 76 100 CALM 30.28R HAZLEHURST PTSUNNY 76 76 100 CALM 30.23R ALMA CLOUDY 76 74 93 NE3 30.22R 6HR MIN TEMP: 73; 6HR MAX TEMP: 76; WAYCROSS N/A 79 79 100 NE5 30.22S JESUP FAIR 77 77 100 NE3 30.23R BAXLEY FAIR 77 77 100 NE5 30.23R BRUNSWICK SUNNY 81 79 94 CALM 30.22R SAINT SIMONS SUNNY 83 71 67 E8 30.20R 6HR MIN TEMP: 82; 6HR MAX TEMP: 83; $$ SCZ027-028-034-036>038-045-046-048>050-GAZ119-141-241300- ...LAKE AND SUPPLEMENTAL COASTAL OBSERVATIONS... STATION/POSITION TIME TEMP WIND PRES WAVE SWELL AIR SEA DIR/SP/G HT/PER HT/PER/DIR (UTC) (F) (DEG/KT/KT) (MB) (FT/S) (FT/S/D) WINYAH BAY 1100 80 80/ 8 1023.0S LAKE MURRAY 1100 75 80/ 4/ 6 1024.4R ACE BASIN NERRS 1100 73 360/ 1 1024.0R FORT PULASKI 1200 79 87 360/ 7/ 8 1023.7R SAPELO ISLAND 1200 81 40/ 1 1023.0R $$ ANZ835-935-AMZ111-154-330-350-352-354-370-450-454-472-241300- ...C-MAN AND BUOY OBSERVATIONS... STATION/POSITION TIME TEMP WIND PRES WAVE SWELL AIR SEA DIR/SP/G HT/PER HT/PER/DIR (UTC) (F) (DEG/KT/KT) (MB) (FT/S) (FT/S/D) BUOY 41004 1150 83 84 60/ 16/ 19 1022.2R 4/ 5 2/100/ 8 BUOY 41008 1150 83 85 60/ 12/ 14 1022.4 3/ 5 2/100/ 7 FOLLY BEACH CMAN 1200 78 10/ 9/ 11 1023.8R CAPERS NEARSHORE 1208 82 84 60/ 14/ 19 1023.6R FRIPP NEARSHORE 1208 83 86 70/ 14/ 17 1022.9R STATION/POSITION TIME TEMP WIND PRES WAVE SWELL AIR SEA DIR/SP/G HT/PER HT/PER/DIR (UTC) (F) (DEG/KT/KT) (MB) (FT/S) (FT/S/D) 5E ST. MARYS GA 1201 84 N/A 4/ 6 FRYING PAN BUOY 1200 82 85 30/ 14/ 17 1023.5R BUOY 41025 1150 79 84 30/ 17/ 19 1023.3R 3/ 8 2/ 50/ 8 CAPE LOOKOUT NC 1200 75 360/ 9/ 11 1024.1R BUOY 41002 1150 82 85 60/ 14/ 17 1021.1R 4/ 6 2/100/11 BUOY 41010 NOT AVBL ST AUGUSTINE FL 1200 83 83 80/ 13/ 15 1022.3R $$

USA.gov is the U.S. government's official web portal to all federal, state and local government web resources and services.